G7ITT Weather Reports


time (UTC)temp
F
wind
direction
speed
knots
gust
knots
rain 1hr
in
rain 24hr
in
rain mn
in
humidity
%
barometer
mb
20220124100003 39 149 0.0 0.9 0.00 0.00 0.00 65 1032.3
20220124095003 38 0 0.0 0.0 0.00 0.00 0.00 65 1032.3
20220124094003 38 0 0.0 0.0 0.00 0.00 0.00 65 1032.3
20220124093003 38 0 0.0 0.0 0.00 0.00 0.00 65 1032.3
20220124092002 38 0 0.0 0.0 0.00 0.00 0.00 65 1032.2
20220124091002 38 0 0.0 0.0 0.00 0.00 0.00 65 1032.2
20220124090003 38 150 0.0 1.7 0.00 0.00 0.00 65 1032.1
20220124085003 38 0 0.0 0.0 0.00 0.00 0.00 66 1032.2
20220124084003 38 0 0.0 0.0 0.00 0.00 0.00 66 1031.9
20220124083003 38 0 0.0 0.0 0.00 0.00 0.00 66 1031.9
20220124082003 38 0 0.0 0.0 0.00 0.00 0.00 66 1031.8
20220124081003 38 0 0.0 0.0 0.00 0.00 0.00 66 1031.6
20220124080002 38 0 0.0 0.0 0.00 0.00 0.00 66 1031.5
20220124075003 38 0 0.0 0.0 0.00 0.00 0.00 66 1031.4
20220124074002 38 150 0.0 4.3 0.00 0.00 0.00 66 1031.3
20220124073002 38 175 0.9 3.5 0.00 0.00 0.00 66 1031.1
20220124072002 38 158 0.9 7.0 0.00 0.00 0.00 66 1031.1
20220124071003 38 159 0.0 3.5 0.00 0.00 0.00 67 1031.1
20220124070003 38 159 0.0 1.7 0.00 0.00 0.00 67 1031.0
20220124065003 38 157 0.0 3.5 0.00 0.00 0.00 67 1031.0
20220124064003 38 154 0.0 5.2 0.00 0.00 0.00 67 1030.9
20220124063003 38 154 0.9 3.5 0.00 0.00 0.00 67 1030.8
20220124062003 38 155 0.0 3.5 0.00 0.00 0.00 67 1030.6
20220124061003 38 155 0.0 1.7 0.00 0.00 0.00 67 1030.6
20220124060003 38 0 0.0 0.0 0.00 0.00 0.00 67 1030.5
20220124055003 38 159 0.0 0.9 0.00 0.00 0.00 67 1030.4
20220124054003 38 0 0.0 0.0 0.00 0.00 0.00 67 1030.6
20220124053003 38 159 0.0 0.9 0.00 0.00 0.00 67 1030.6
20220124052003 38 159 0.0 1.7 0.00 0.00 0.00 67 1030.7
20220124051003 38 150 0.0 6.1 0.00 0.00 0.00 67 1030.6
20220124050003 38 140 0.0 1.7 0.00 0.00 0.00 68 1030.7
20220124045003 38 154 0.0 4.3 0.00 0.00 0.00 68 1030.5
20220124044003 38 168 0.9 5.2 0.00 0.00 0.00 68 1030.3
20220124043003 38 167 0.9 4.3 0.00 0.00 0.00 68 1030.3
20220124042003 38 156 0.9 4.3 0.00 0.00 0.00 68 1030.4
20220124041003 39 171 0.0 4.3 0.00 0.00 0.00 68 1030.4
20220124040003 39 173 0.0 4.3 0.00 0.00 0.00 69 1030.4
20220124035003 38 162 0.9 5.2 0.00 0.00 0.00 69 1030.4
20220124034003 39 165 0.9 5.2 0.00 0.00 0.00 69 1030.5
20220124033004 39 172 0.9 3.5 0.00 0.00 0.00 69 1030.4
20220124032003 39 156 1.7 7.0 0.00 0.00 0.00 69 1030.4
20220124031003 39 168 0.9 5.2 0.00 0.00 0.00 70 1030.5
20220124030003 39 160 0.9 4.3 0.00 0.00 0.00 70 1030.5
20220124025004 39 158 1.7 6.1 0.00 0.00 0.00 70 1030.4
20220124024003 39 168 0.9 5.2 0.00 0.00 0.00 70 1030.4
20220124023003 39 168 0.9 5.2 0.00 0.00 0.00 71 1030.4
20220124022003 39 168 1.7 4.3 0.00 0.00 0.00 71 1030.5
20220124021003 39 166 0.0 6.1 0.00 0.00 0.00 71 1030.4
20220124020003 39 152 0.0 3.5 0.00 0.00 0.00 71 1030.5
20220124015003 39 153 0.0 3.5 0.00 0.00 0.00 72 1030.5
20220124014003 39 156 0.9 5.2 0.00 0.00 0.00 72 1030.6
20220124013003 39 161 0.0 7.0 0.00 0.00 0.00 72 1030.6
20220124012003 39 162 0.0 4.3 0.00 0.00 0.00 72 1030.8
20220124011003 39 163 0.0 4.3 0.00 0.00 0.00 72 1030.7
20220124010004 39 163 0.9 4.3 0.00 0.00 0.00 72 1030.8
20220124005004 39 164 0.0 3.5 0.00 0.00 0.00 73 1030.8
20220124004004 40 161 0.9 6.1 0.00 0.00 0.00 73 1030.7
20220124003004 40 150 0.9 5.2 0.00 0.00 0.00 73 1030.7
20220124002004 40 156 0.0 4.3 0.00 0.00 0.00 73 1030.7
20220124001004 40 154 0.9 5.2 0.00 0.00 0.00 73 1030.5
20220124000004 40 142 0.9 4.3 0.00 0.00 0.00 73 1030.5
20220123235004 40 157 0.9 6.1 0.00 0.00 0.00 73 1030.6
20220123234004 40 153 0.0 3.5 0.00 0.00 0.00 73 1030.5
20220123233004 40 154 0.0 1.7 0.00 0.00 0.00 73 1030.5
20220123232004 40 152 0.9 4.3 0.00 0.00 0.00 73 1030.5
20220123231004 40 153 0.9 3.5 0.00 0.00 0.00 73 1030.6
20220123230004 40 153 0.0 5.2 0.00 0.00 0.00 74 1030.6
20220123225003 40 152 0.0 2.6 0.00 0.00 0.00 74 1030.6
20220123224003 40 152 0.0 1.7 0.00 0.00 0.00 74 1030.5
20220123223004 40 152 0.0 4.3 0.00 0.00 0.00 74 1030.5
20220123222004 40 151 0.0 3.5 0.00 0.00 0.00 74 1030.4
20220123221004 40 150 0.0 1.7 0.00 0.00 0.00 74 1030.5
20220123220004 40 151 0.0 4.3 0.00 0.00 0.00 75 1030.5
20220123215004 40 151 0.0 2.6 0.00 0.00 0.00 75 1030.4
20220123214004 40 0 0.0 0.0 0.00 0.00 0.00 75 1030.4
20220123213004 40 155 0.9 4.3 0.00 0.00 0.00 75 1030.5
20220123212003 40 156 1.7 7.0 0.00 0.00 0.00 75 1030.5
20220123211004 40 158 1.7 6.1 0.00 0.00 0.00 75 1030.5
20220123210004 40 160 1.7 6.1 0.00 0.00 0.00 75 1030.5
20220123205004 40 154 1.7 7.0 0.00 0.00 0.00 75 1030.5
20220123204004 40 159 0.0 3.5 0.00 0.00 0.00 75 1030.5
20220123203004 40 139 0.0 2.6 0.00 0.00 0.00 75 1030.5
20220123202004 40 138 0.0 2.6 0.00 0.00 0.00 75 1030.4
20220123201004 40 138 0.0 2.6 0.00 0.00 0.00 75 1030.5
20220123200004 40 138 0.0 1.7 0.00 0.00 0.00 75 1030.4
20220123195003 40 0 0.0 0.0 0.00 0.00 0.00 75 1030.5
20220123194004 40 137 0.0 0.9 0.00 0.00 0.00 75 1030.6
20220123193004 40 137 0.0 0.9 0.00 0.00 0.00 75 1030.6
20220123192004 39 0 0.0 0.0 0.00 0.00 0.00 75 1030.7
20220123191004 39 0 0.0 0.0 0.00 0.00 0.00 76 1030.8
20220123190004 39 138 0.0 1.7 0.00 0.00 0.00 76 1030.8
20220123185004 39 0 0.0 0.0 0.00 0.00 0.00 76 1030.7
20220123184004 38 0 0.0 0.0 0.00 0.00 0.00 76 1030.8
20220123183005 38 0 0.0 0.0 0.00 0.00 0.00 76 1030.8
20220123182004 38 0 0.0 0.0 0.00 0.00 0.00 76 1030.7
20220123181004 38 0 0.0 0.0 0.00 0.00 0.00 77 1030.7
20220123180004 38 0 0.0 0.0 0.00 0.00 0.00 77 1030.7
20220123175004 39 0 0.0 0.0 0.00 0.00 0.00 77 1030.7
20220123174004 39 0 0.0 0.0 0.00 0.00 0.00 77 1030.7
20220123173004 39 0 0.0 0.0 0.00 0.00 0.00 77 1030.6
20220123172004 39 0 0.0 0.0 0.00 0.00 0.00 77 1030.6
20220123171004 39 137 0.0 0.9 0.00 0.00 0.00 77 1030.6
20220123170004 40 0 0.0 0.0 0.00 0.00 0.00 77 1030.5
20220123165004 40 137 0.0 2.6 0.00 0.00 0.00 76 1030.4
20220123164004 40 138 0.0 1.7 0.00 0.00 0.00 76 1030.5
20220123163004 40 140 0.0 3.5 0.00 0.00 0.00 76 1030.5
20220123162004 40 161 0.0 3.5 0.00 0.00 0.00 76 1030.4
20220123161004 40 175 0.9 4.3 0.00 0.00 0.00 76 1030.5
20220123160004 41 163 1.7 4.3 0.00 0.00 0.00 76 1030.5
20220123155004 41 164 1.7 5.2 0.00 0.00 0.00 76 1030.5
20220123154004 41 167 0.9 5.2 0.00 0.00 0.00 76 1030.5
20220123153004 41 166 1.7 6.1 0.00 0.00 0.00 76 1030.5
20220123152004 42 168 1.7 5.2 0.00 0.00 0.00 76 1030.5
20220123151004 42 165 2.6 7.8 0.00 0.00 0.00 76 1030.5
20220123150004 42 160 2.6 8.7 0.00 0.00 0.00 75 1030.6
20220123145004 42 167 2.6 7.0 0.00 0.00 0.00 75 1030.6
20220123144004 42 162 3.5 7.8 0.00 0.00 0.00 75 1030.8
20220123143005 42 162 3.5 7.0 0.00 0.00 0.00 75 1030.9
20220123142004 42 163 3.5 7.8 0.00 0.00 0.00 75 1030.9
20220123141002 42 163 2.6 7.8 0.00 0.00 0.00 74 1031.0
20220123140003 42 162 2.6 6.1 0.00 0.00 0.00 73 1031.1
20220123135003 42 161 2.6 9.6 0.00 0.00 0.00 73 1031.1
20220123134002 42 161 2.6 7.0 0.00 0.00 0.00 72 1031.2
20220123133003 43 158 2.6 7.8 0.00 0.00 0.00 72 1031.2
20220123132002 42 160 2.6 8.7 0.00 0.00 0.00 71 1031.2
20220123131003 42 161 2.6 7.0 0.00 0.00 0.00 70 1031.3
20220123130002 42 156 3.5 8.7 0.00 0.00 0.00 70 1031.5
20220123125002 42 162 1.7 7.8 0.00 0.00 0.00 69 1031.6
20220123124003 42 177 1.7 6.1 0.00 0.00 0.00 68 1031.7
20220123123003 43 159 1.7 7.8 0.00 0.00 0.00 68 1031.8
20220123122002 42 157 1.7 5.2 0.00 0.00 0.00 67 1032.0
20220123121003 42 166 2.6 6.1 0.00 0.00 0.00 66 1032.0
20220123120002 42 152 2.6 10.4 0.00 0.00 0.00 65 1031.9
20220123115002 43 150 1.7 6.1 0.00 0.00 0.00 65 1032.0
20220123114003 42 155 1.7 6.1 0.00 0.00 0.00 64 1032.1
20220123113003 43 157 0.0 5.2 0.00 0.00 0.00 63 1032.2
20220123112003 43 164 1.7 5.2 0.00 0.00 0.00 63 1032.2
20220123111003 43 153 1.7 6.1 0.00 0.00 0.00 62 1032.2
20220123110002 42 153 2.6 5.2 0.00 0.00 0.00 61 1032.3
20220123105002 42 163 2.6 7.0 0.00 0.00 0.00 60 1032.4
20220123104002 42 159 2.6 9.6 0.00 0.00 0.00 59 1032.5
20220123103003 42 167 1.7 7.8 0.00 0.00 0.00 59 1032.5
20220123102003 42 155 1.7 5.2 0.00 0.00 0.00 58 1032.5
20220123101003 42 159 0.9 5.2 0.00 0.00 0.00 58 1032.4